Content
SEND FEEDBACK

Daily
Averages
Monthly
Summary
United States of America

SALEM, INDIANA


Home > North America > United States > Indiana
Elevation: 797 feet     Latitude: 38 12N     Longitude: 086 42W

WEATHER
 
SELECT A DAY
Number of Records: 182,562;   Date Range: 1/1/95 - 8/29/14
 
SHARE

PRINT THIS DATA

[ ← Previous Day ]
WEATHER ALMANAC - JANUARY 31, 2013
[ Next Day → ]
[ °C ]   °F
Weather ElementAverageHighLow
Temperature29.3 °F36 °F (3:56 pm)19 °F (11:56 pm)
Dewpoint21.4 °F28.9 °F (8:56 pm)8.6 °F (11:39 pm)
Humidity73.1 %93 % (8:40 pm)52 % (1:39 pm)
Barometer29.99 in30.16 in (11:56 pm)29.78 in (1:10 am)
Wind Speed17.3 mph34.5 mph (9:25 pm)
Wind Gust42.6 mph (9:25 pm)
Weather ElementAverage
Visibility5.4 mi
Wind DirectionW (269.1 °)

Weather ElementTotal
Precipitation0.11 in
Heating Degree Days37.5 (Base 65)
Averaged from 53 records on January 31, 2013
WEATHER CONDITIONS BREAKOUT
WIND DIRECTION BREAKOUT
WEATHER BY HOUR - JANUARY 31, 2013
[ °C ]   °F
Local TimeTemperatureDewpointHumidityBarometerVisibilityWind DirectionWind SpeedGust SpeedPrecipitationEventsConditions
1:10 AM32.0 °F21.2 °F64 %29.78 in10.0 miWest (280°)31.1 mph39.1 mph0.00 inSnowLight Snow
1:56 AM30.9 °F19.0 °F61 %29.82 in9.0 miWNW (290°)25.3 mph39.1 mph0.00 inOvercast
2:56 AM30.9 °F18.0 °F59 %29.85 in10.0 miWest (270°)23.0 mph38.0 mphOvercast
3:56 AM30.9 °F18.0 °F59 %29.86 in10.0 miWest (270°)21.9 mph28.8 mphOvercast
4:56 AM30.9 °F19.0 °F61 %29.86 in10.0 miWest (270°)18.4 mph23.0 mphOvercast
5:56 AM30.0 °F18.0 °F61 %29.88 in10.0 miWest (260°)19.6 mph26.5 mphOvercast
6:56 AM30.0 °F18.0 °F61 %29.92 in10.0 miWest (260°)21.9 mph32.2 mph0.00 inOvercast
7:56 AM28.9 °F19.0 °F67 %29.96 in9.0 miWest (280°)11.5 mph20.7 mph0.00 inSnowLight Snow
8:56 AM28.0 °F18.0 °F66 %29.99 in5.0 miWNW (300°)15.0 mph0.00 inSnowLight Snow
9:00 AM28.4 °F17.6 °F64 %29.98 in2.5 miWNW (300°)13.8 mph0.00 inSnowLight Snow
9:05 AM28.4 °F19.4 °F69 %29.98 in1.0 miWNW (290°)11.5 mph0.00 inSnowLight Snow
9:33 AM26.6 °F21.2 °F80 %30.00 in0.8 miWest (280°)13.8 mph0.00 inSnowLight Snow
9:44 AM26.6 °F23.0 °F86 %30.00 in2.5 miWest (260°)9.2 mph0.00 inSnowLight Snow
9:46 AM26.6 °F23.0 °F86 %30.00 in4.0 miWest (260°)9.2 mphSnowLight Snow
9:51 AM26.6 °F23.0 °F86 %30.00 in6.0 miWest (260°)10.4 mph0.00 inSnowLight Snow
9:56 AM28.0 °F23.0 °F81 %30.02 in6.0 miWSW (250°)8.1 mph0.00 inSnowLight Snow
10:02 AM28.4 °F23.0 °F80 %30.00 in9.0 miWSW (250°)6.9 mph0.00 inSnowLight Snow
10:56 AM30.0 °F21.0 °F69 %30.02 in8.0 miWSW (250°)16.1 mph0.00 inSnowLight Snow
11:02 AM28.4 °F21.2 °F74 %30.01 in5.0 miWSW (240°)17.3 mph0.00 inSnowLight Snow
11:18 AM28.4 °F21.2 °F74 %30.02 in2.5 miWSW (250°)12.7 mph0.00 inSnowLight Snow
11:33 AM30.2 °F23.0 °F75 %30.02 in4.0 miWSW (250°)12.7 mph0.00 inSnowLight Snow
11:56 AM30.9 °F24.1 °F76 %30.03 in4.0 miSW (230°)15.0 mph20.7 mph0.00 inSnowLight Snow
12:04 PM30.2 °F24.8 °F80 %30.01 in2.0 miWSW (250°)15.0 mph25.3 mph0.00 inSnowLight Snow
12:20 PM30.2 °F24.8 °F80 %30.02 in1.5 miWSW (240°)10.4 mph0.00 inSnowLight Snow
12:30 PM30.2 °F24.8 °F80 %30.02 in2.0 miWSW (240°)12.7 mph0.00 inSnowLight Snow
12:49 PM30.2 °F24.8 °F80 %30.00 in5.0 miWest (260°)15.0 mph0.00 inSnowLight Snow
12:56 PM32.0 °F24.1 °F73 %30.01 in5.0 miWSW (250°)11.5 mph0.00 inSnowLight Snow
1:39 PM35.6 °F19.4 °F52 %29.98 in9.0 miWest (270°)21.9 mph28.8 mph0.00 inSnowLight Snow
1:56 PM34.0 °F19.0 °F54 %29.99 in9.0 miWSW (240°)20.7 mph31.1 mph0.00 inSnowLight Snow
2:56 PM34.0 °F19.0 °F54 %29.98 in10.0 miWSW (250°)18.4 mph24.2 mph0.00 inMostly Cloudy
3:56 PM36.0 °F19.9 °F52 %29.97 in10.0 miWSW (250°)17.3 mph25.3 mphMostly Cloudy
4:56 PM36.0 °F19.9 °F52 %29.97 in10.0 miWest (260°)19.6 mph26.5 mphOvercast
5:56 PM35.1 °F21.0 °F57 %29.98 in10.0 miWest (260°)18.4 mph21.9 mphOvercast
6:56 PM35.1 °F21.9 °F59 %29.99 in10.0 miWest (260°)16.1 mph23.0 mphOvercast
7:56 PM34.0 °F24.1 °F67 %29.98 in5.0 miWest (260°)17.3 mph23.0 mph0.00 inSnowLight Snow
8:00 PM33.8 °F24.8 °F70 %29.97 in2.5 miWSW (250°)16.1 mph24.2 mph0.00 inSnowLight Snow
8:04 PM32.0 °F26.6 °F80 %29.97 in1.5 miWest (270°)16.1 mph24.2 mph0.00 inSnowLight Snow
8:40 PM30.2 °F28.4 °F93 %29.97 in1.0 miWSW (250°)10.4 mph0.01 inSnowLight Snow
8:48 PM30.2 °F28.4 °F93 %29.96 in1.0 miWSW (250°)9.2 mph0.01 inSnowLight Snow
8:56 PM30.9 °F28.9 °F92 %29.99 in1.0 miWest (260°)10.4 mph0.02 inSnowLight Snow
9:00 PM30.2 °F28.4 °F93 %29.97 in0.8 miWSW (250°)9.2 mph0.00 inSnowLight Snow
9:13 PM30.2 °F28.4 °F93 %29.97 in1.0 miWest (260°)13.8 mph0.01 inSnowLight Snow
9:25 PM30.2 °F28.4 °F93 %30.00 in0.5 miNW (310°)34.5 mph42.6 mph0.01 inFog-SnowSnow
9:28 PM26.6 °F24.8 °F93 %30.01 in0.2 miNW (320°)28.8 mph42.6 mph0.01 inFog-SnowHeavy Snow
9:32 PM24.8 °F21.2 °F86 %30.02 in0.2 miNW (310°)25.3 mph42.6 mph0.01 inFog-SnowHeavy Snow
9:36 PM24.8 °F21.2 °F86 %30.02 in0.5 miNW (310°)25.3 mph39.1 mph0.01 inFog-SnowLight Snow
9:40 PM24.8 °F19.4 °F80 %30.02 in2.0 miNW (310°)27.6 mph38.0 mph0.01 inSnowLight Snow
9:44 PM24.8 °F19.4 °F80 %30.03 in4.0 miNW (310°)23.0 mph35.7 mph0.01 inSnowLight Snow
9:56 PM26.6 °F19.4 °F74 %30.05 in4.0 miWNW (300°)20.7 mph31.1 mphSnowLight Snow
10:56 PM23.0 °F15.1 °F72 %30.11 in10.0 miWNW (290°)16.1 mph0.00 inOvercast
11:16 PM21.2 °F12.2 °F68 %30.10 in10.0 miWNW (290°)23.0 mph31.1 mphOvercast
11:39 PM19.4 °F8.6 °F63 %30.13 in9.0 miWNW (290°)27.6 mph36.8 mphScattered Clouds
11:56 PM19.0 °F9.0 °F65 %30.16 in8.0 miWNW (290°)19.6 mph35.7 mphScattered Clouds
Hourly data recorded from KSDF, located miles away from Salem, Indiana







STORIES FROM OUR PARTNERS